Location: Br�znic
(45.9167°N, 22.6500°E)
Time: 17:14:38
(UTC+00:00)

Cosmos 1470 Rocket - Pass Details

Date: 03 March 2021
Orbit: 602 x 635 km, 82.5° (Epoch: 11 April)

Event Time Altitude Azimuth Distance (km) Brightness Sun altitude
Rises 16:57:39 0° 171° (S) 2,917 6.9 -7.5°
Reaches altitude 10° 16:59:56 10° 165° (SSE) 2,012 6.1 -7.9°
Maximum altitude 17:04:12 45° 93° (E) 863 3.9 -8.7°
Drops below altitude 10° 17:08:27 10° 21° (NNE) 2,015 6.0 -9.4°
Sets 17:10:45 0° 15° (NNE) 2,923 6.9 -9.8°
